• In Schweiz
  • Länderverzeichnis
  • Für 7 Tage
  • Wassertemperatur
  • Satellitenkarten
  • Wetterkarte
  • Widgets
  • user-avatar
    Anmelden

    Stündliche Wetter Zayavane

    Heute, 19 Oktober, Freitag

    Zeit Temperatur Niederschläge Wind Luftdruck Luftfeuchtigkeit
    00:00 +11°C° 0 mm 3 m/S 755 mmHg 90%
    01:00 +10°C° 0 mm 3 m/S 755 mmHg 91%
    02:00 +9°C° 0 mm 2 m/S 755 mmHg 92%
    03:00 +8°C° 0 mm 2 m/S 755 mmHg 91%
    04:00 +8°C° 0 mm 2 m/S 755 mmHg 90%
    05:00 +7°C° 0 mm 2 m/S 756 mmHg 89%
    06:00 +7°C° 0 mm 2 m/S 756 mmHg 87%
    07:00 +7°C° 0 mm 3 m/S 756 mmHg 84%
    08:00 +7°C° 0 mm 3 m/S 757 mmHg 82%
    09:00 +8°C° 0 mm 3 m/S 757 mmHg 76%
    10:00 +9°C° 0 mm 3 m/S 757 mmHg 71%
    11:00 +11°C° 0 mm 4 m/S 757 mmHg 65%
    12:00 +11°C° 0 mm 4 m/S 757 mmHg 64%
    13:00 +11°C° 0 mm 4 m/S 757 mmHg 62%
    14:00 +11°C° 0 mm 4 m/S 757 mmHg 61%
    15:00 +10°C° 0 mm 4 m/S 757 mmHg 65%
    16:00 +9°C° 0 mm 3 m/S 757 mmHg 69%
    17:00 +8°C° 0 mm 3 m/S 757 mmHg 74%
    18:00 +8°C° 0 mm 3 m/S 758 mmHg 76%
    19:00 +7°C° 0 mm 3 m/S 758 mmHg 78%
    20:00 +7°C° 0 mm 3 m/S 758 mmHg 80%
    21:00 +7°C° 0 mm 3 m/S 758 mmHg 82%
    22:00 +5°C° 0 mm 3 m/S 758 mmHg 85%
    23:00 +6°C° 0 mm 2 m/S 758 mmHg 87%

    Morgen, 20 Oktober, Samstag

    Zeit Temperatur Niederschläge Wind Luftdruck Luftfeuchtigkeit
    00:00 +6°C° 0 mm 2 m/S 758 mmHg 89%
    01:00 +6°C° 0 mm 2 m/S 758 mmHg 91%
    02:00 +5°C° 0 mm 2 m/S 758 mmHg 92%
    03:00 +5°C° 0 mm 2 m/S 758 mmHg 93%
    04:00 +5°C° 0 mm 2 m/S 758 mmHg 93%
    05:00 +5°C° 0 mm 2 m/S 758 mmHg 93%
    06:00 +5°C° 0 mm 2 m/S 758 mmHg 93%
    07:00 +5°C° 0 mm 2 m/S 758 mmHg 92%
    08:00 +5°C° 0 mm 2 m/S 758 mmHg 92%
    09:00 +6°C° 0 mm 2 m/S 758 mmHg 87%
    10:00 +7°C° 0 mm 2 m/S 759 mmHg 83%
    11:00 +8°C° 0 mm 2 m/S 759 mmHg 79%
    12:00 +8°C° 0 mm 2 m/S 759 mmHg 77%
    13:00 +9°C° 0 mm 2 m/S 758 mmHg 75%
    14:00 +9°C° 0 mm 2 m/S 758 mmHg 74%
    15:00 +8°C° 0 mm 2 m/S 758 mmHg 77%
    16:00 +9°C° 0 mm 1 m/S 758 mmHg 81%
    17:00 +8°C° 0 mm 1 m/S 758 mmHg 84%
    18:00 +8°C° 0.1 mm 1 m/S 758 mmHg 86%
    19:00 +8°C° 0.1 mm 1 m/S 758 mmHg 88%
    20:00 +7°C° 0.1 mm 1 m/S 759 mmHg 90%
    21:00 +6°C° 0.1 mm 0 m/S 759 mmHg 91%
    22:00 +6°C° 0.1 mm 0 m/S 759 mmHg 92%
    23:00 +6°C° 0.1 mm 0 m/S 759 mmHg 93%

    übermorgen, 21 Oktober, Sonntag

    Zeit Temperatur Niederschläge Wind Luftdruck Luftfeuchtigkeit
    00:00 +6°C° 0 mm 0 m/S 759 mmHg 93%
    01:00 +5°C° 0 mm 0 m/S 759 mmHg 93%
    02:00 +5°C° 0 mm 0 m/S 759 mmHg 94%
    03:00 +5°C° 0 mm 0 m/S 759 mmHg 94%
    04:00 +5°C° 0 mm 0 m/S 759 mmHg 94%
    05:00 +4°C° 0 mm 0 m/S 759 mmHg 95%
    06:00 +4°C° 0 mm 0 m/S 760 mmHg 95%
    07:00 +4°C° 0 mm 0 m/S 760 mmHg 95%
    08:00 +4°C° 0 mm 0 m/S 760 mmHg 95%
    09:00 +7°C° 0 mm 1 m/S 760 mmHg 89%
    10:00 +8°C° 0 mm 1 m/S 760 mmHg 82%
    11:00 +9°C° 0 mm 1 m/S 761 mmHg 76%
    12:00 +10°C° 0 mm 1 m/S 761 mmHg 74%
    13:00 +10°C° 0 mm 1 m/S 761 mmHg 72%
    14:00 +9°C° 0 mm 2 m/S 761 mmHg 70%
    15:00 +8°C° 0 mm 2 m/S 761 mmHg 75%
    16:00 +7°C° 0 mm 2 m/S 760 mmHg 80%
    17:00 +6°C° 0 mm 2 m/S 760 mmHg 85%
    18:00 +6°C° 0 mm 2 m/S 760 mmHg 86%
    19:00 +6°C° 0 mm 2 m/S 760 mmHg 87%
    20:00 +5°C° 0 mm 2 m/S 760 mmHg 89%
    21:00 +4°C° 0 mm 3 m/S 760 mmHg 88%
    22:00 +4°C° 0 mm 3 m/S 760 mmHg 88%
    23:00 +4°C° 0 mm 3 m/S 759 mmHg 87%

    22 Oktober, Montag

    Zeit Temperatur Niederschläge Wind Luftdruck Luftfeuchtigkeit
    00:00 +4°C° 0 mm 4 m/S 759 mmHg 88%
    01:00 +4°C° 0 mm 4 m/S 759 mmHg 88%
    02:00 +4°C° 0 mm 4 m/S 758 mmHg 89%
    03:00 +4°C° 0 mm 4 m/S 758 mmHg 89%
    04:00 +4°C° 0 mm 4 m/S 757 mmHg 90%
    05:00 +3°C° 0 mm 5 m/S 757 mmHg 90%
    06:00 +3°C° 0 mm 5 m/S 756 mmHg 89%
    07:00 +5°C° 0 mm 5 m/S 756 mmHg 88%
    08:00 +4°C° 0 mm 6 m/S 755 mmHg 87%
    09:00 +5°C° 0 mm 6 m/S 755 mmHg 83%
    10:00 +5°C° 0 mm 6 m/S 754 mmHg 79%
    11:00 +7°C° 0 mm 6 m/S 753 mmHg 74%
    12:00 +7°C° 0.1 mm 6 m/S 753 mmHg 76%
    13:00 +7°C° 0.1 mm 6 m/S 752 mmHg 77%
    14:00 +7°C° 0.1 mm 6 m/S 752 mmHg 79%
    15:00 +8°C° 0.1 mm 6 m/S 752 mmHg 80%
    16:00 +8°C° 0.1 mm 6 m/S 752 mmHg 82%
    17:00 +8°C° 0.1 mm 5 m/S 752 mmHg 84%
    18:00 +7°C° 0.1 mm 5 m/S 752 mmHg 85%
    19:00 +7°C° 0.1 mm 4 m/S 752 mmHg 86%
    20:00 +7°C° 0.1 mm 4 m/S 752 mmHg 87%
    21:00 +6°C° 0 mm 4 m/S 752 mmHg 88%
    22:00 +7°C° 0 mm 3 m/S 752 mmHg 89%
    23:00 +5°C° 0 mm 3 m/S 752 mmHg 91%

    23 Oktober, Dienstag

    Zeit Temperatur Niederschläge Wind Luftdruck Luftfeuchtigkeit
    00:00 +5°C° 0 mm 3 m/S 752 mmHg 90%
    01:00 +4°C° 0 mm 3 m/S 752 mmHg 90%
    02:00 +5°C° 0 mm 2 m/S 752 mmHg 89%
    03:00 +5°C° 0 mm 2 m/S 752 mmHg 89%
    04:00 +5°C° 0 mm 2 m/S 752 mmHg 89%
    05:00 +4°C° 0 mm 2 m/S 752 mmHg 89%
    06:00 +4°C° 0 mm 2 m/S 752 mmHg 89%
    07:00 +4°C° 0 mm 2 m/S 752 mmHg 89%
    08:00 +4°C° 0 mm 2 m/S 752 mmHg 89%
    09:00 +5°C° 0 mm 2 m/S 752 mmHg 83%
    10:00 +6°C° 0 mm 2 m/S 752 mmHg 77%
    11:00 +7°C° 0 mm 3 m/S 752 mmHg 71%
    12:00 +8°C° 0 mm 2 m/S 751 mmHg 69%
    13:00 +8°C° 0 mm 2 m/S 751 mmHg 66%
    14:00 +8°C° 0 mm 2 m/S 750 mmHg 64%
    15:00 +7°C° 0 mm 2 m/S 750 mmHg 69%
    16:00 +6°C° 0 mm 2 m/S 749 mmHg 75%
    17:00 +5°C° 0 mm 2 m/S 749 mmHg 80%
    18:00 +4°C° 0 mm 3 m/S 748 mmHg 80%
    19:00 +4°C° 0 mm 3 m/S 747 mmHg 80%
    20:00 +4°C° 0 mm 3 m/S 747 mmHg 80%
    21:00 +4°C° 0.2 mm 4 m/S 746 mmHg 80%
    22:00 +4°C° 0.2 mm 4 m/S 745 mmHg 80%
    23:00 +4°C° 0.2 mm 4 m/S 744 mmHg 80%

    24 Oktober, Mittwoch

    Zeit Temperatur Niederschläge Wind Luftdruck Luftfeuchtigkeit
    00:00 +3°C° 0.5 mm 5 m/S 742 mmHg 81%
    01:00 +3°C° 0.5 mm 5 m/S 741 mmHg 83%
    02:00 +3°C° 0.5 mm 5 m/S 740 mmHg 84%
    03:00 +3°C° 0.3 mm 5 m/S 739 mmHg 85%
    04:00 +4°C° 0.3 mm 4 m/S 738 mmHg 86%
    05:00 +4°C° 0.3 mm 4 m/S 737 mmHg 87%
    06:00 +4°C° 0.1 mm 3 m/S 736 mmHg 88%
    07:00 +5°C° 0.1 mm 2 m/S 736 mmHg 89%
    08:00 +5°C° 0.1 mm 2 m/S 735 mmHg 90%
    09:00 +5°C° 0.1 mm 2 m/S 735 mmHg 87%
    10:00 +7°C° 0.1 mm 1 m/S 734 mmHg 84%
    11:00 +7°C° 0.1 mm 1 m/S 734 mmHg 81%
    12:00 +7°C° 0.1 mm 1 m/S 734 mmHg 80%
    13:00 +6°C° 0.1 mm 2 m/S 734 mmHg 79%
    14:00 +6°C° 0.1 mm 2 m/S 734 mmHg 78%
    15:00 +6°C° 0.1 mm 2 m/S 734 mmHg 81%
    16:00 +5°C° 0.1 mm 2 m/S 734 mmHg 84%
    17:00 +5°C° 0.1 mm 2 m/S 735 mmHg 87%
    18:00 +4°C° 0.1 mm 3 m/S 735 mmHg 87%
    19:00 +3°C° 0.1 mm 4 m/S 736 mmHg 86%
    20:00 +3°C° 0.1 mm 4 m/S 736 mmHg 86%
    21:00 +3°C° 0 mm 4 m/S 737 mmHg 85%
    22:00 +3°C° 0 mm 4 m/S 737 mmHg 83%
    23:00 +1°C° 0 mm 5 m/S 738 mmHg 81%
    Mehr zeigen